DW9439 Weather Reports


Display with metric or nautical units.
time (UTC)temp
F
wind
direction
speed
MPH
gust
MPH
rain 1hr
in
rain 24hr
in
rain mn
in
humidity
%
barometer
mb
20260904123857 68 190 8.0 14.0 0.00 0.00 0.00 71 1013.0
20260904123130 68 192 8.0 14.0 0.00 0.00 0.00 71 1013.0
20260904122403 68 192 8.0 12.0 0.00 0.00 0.00 71 1013.0
20260904121635 68 193 6.0 12.0 0.00 0.00 0.00 71 1013.1
20260904120455 68 193 6.0 11.0 0.00 0.00 0.00 70 1012.9
20260904120157 68 193 6.0 11.0 0.00 0.00 0.00 69 1013.0
20260904115845 68 193 6.0 11.0 0.00 0.00 0.00 69 1012.9
20260904115533 69 193 6.0 11.0 0.00 0.00 0.00 69 1013.0
20260904115220 69 193 6.0 11.0 0.00 0.00 0.00 69 1012.9
20260904114913 69 193 6.0 10.0 0.00 0.00 0.00 69 1012.9
20260904114606 69 193 6.0 10.0 0.00 0.00 0.00 68 1012.8
20260904114309 69 193 6.0 10.0 0.00 0.00 0.00 68 1012.9
20260904113957 69 193 6.0 10.0 0.00 0.00 0.00 68 1013.0
20260904113648 69 193 6.0 10.0 0.00 0.00 0.00 68 1012.9
20260904112918 69 193 6.0 10.0 0.00 0.00 0.00 67 1012.9
20260904112608 69 193 7.0 10.0 0.00 0.00 0.00 67 1012.9
20260904110559 70 193 6.0 9.0 0.00 0.00 0.00 67 1013.0
20260904105832 70 193 5.0 7.0 0.00 0.00 0.00 66 1013.1
20260904105533 70 193 5.0 7.0 0.00 0.00 0.00 66 1013.1
20260904104821 71 193 5.0 7.0 0.00 0.00 0.00 65 1013.1
20260904104510 71 193 5.0 7.0 0.00 0.00 0.00 64 1013.1
20260904104212 71 193 5.0 7.0 0.00 0.00 0.00 64 1013.2
20260904103019 72 193 6.0 10.0 0.00 0.00 0.00 61 1013.1
20260904102715 72 193 6.0 10.0 0.00 0.00 0.00 61 1013.1
20260904101959 73 193 7.0 12.0 0.00 0.00 0.00 60 1013.0
20260904101700 73 193 8.0 12.0 0.00 0.00 0.00 59 1013.0
20260904100939 74 193 8.0 13.0 0.00 0.00 0.00 58 1013.0
20260904100634 74 193 8.0 13.0 0.00 0.00 0.00 57 1012.9
20260904100329 74 193 8.0 13.0 0.00 0.00 0.00 57 1013.0
20260904100019 75 193 8.0 15.0 0.00 0.00 0.00 57 1013.0
20260904095713 75 193 9.0 15.0 0.00 0.00 0.00 56 1012.9
20260904095409 75 195 10.0 15.0 0.00 0.00 0.00 56 1012.9
20260904095103 75 195 10.0 15.0 0.00 0.00 0.00 56 1012.8
20260904094805 75 196 10.0 15.0 0.00 0.00 0.00 56 1012.7
20260904094505 75 192 9.0 15.0 0.00 0.00 0.00 56 1012.7
20260904094204 75 189 9.0 15.0 0.00 0.00 0.00 56 1012.6
20260904093902 75 188 8.0 14.0 0.00 0.00 0.00 55 1012.7
20260904093602 75 190 9.0 15.0 0.00 0.00 0.00 55 1012.8
20260904092837 76 190 10.0 15.0 0.00 0.00 0.00 55 1012.6
20260904092535 76 191 10.0 15.0 0.00 0.00 0.00 55 1012.6
20260904092229 76 191 11.0 15.0 0.00 0.00 0.00 55 1012.6
20260904091921 76 192 11.0 15.0 0.00 0.00 0.00 55 1012.7
20260904091205 76 188 9.0 14.0 0.00 0.00 0.00 55 1012.6
20260904090855 76 186 10.0 14.0 0.00 0.00 0.00 55 1012.7
20260904090553 76 186 10.0 14.0 0.00 0.00 0.00 55 1012.7
20260904090256 76 186 10.0 14.0 0.00 0.00 0.00 55 1012.7
20260904085959 76 186 9.0 14.0 0.00 0.00 0.00 54 1012.7
20260904085647 76 185 9.0 14.0 0.00 0.00 0.00 54 1012.7
20260904084935 76 184 10.0 14.0 0.00 0.00 0.00 53 1012.6
20260904084637 76 184 10.0 14.0 0.00 0.00 0.00 53 1012.7
20260904084326 76 184 9.0 14.0 0.00 0.00 0.00 53 1012.6
20260904084022 77 183 9.0 14.0 0.00 0.00 0.00 53 1012.6
20260904083711 77 182 9.0 14.0 0.00 0.00 0.00 53 1012.6
20260904082940 77 184 9.0 14.0 0.00 0.00 0.00 53 1012.7
20260904082213 77 184 10.0 19.0 0.00 0.00 0.00 53 1012.8
20260904081902 77 185 11.0 19.0 0.00 0.00 0.00 52 1012.6
20260904081133 77 186 10.0 19.0 0.00 0.00 0.00 53 1012.7
20260904080833 77 181 9.0 19.0 0.00 0.00 0.00 53 1012.6
20260904080533 77 185 7.0 13.0 0.00 0.00 0.00 53 1012.6
20260904075803 77 185 7.0 20.0 0.00 0.00 0.00 52 1012.6
20260904075455 78 185 9.0 20.0 0.00 0.00 0.00 52 1012.6
20260904075152 78 185 10.0 20.0 0.00 0.00 0.00 51 1012.6
20260904074854 78 185 10.0 20.0 0.00 0.00 0.00 52 1012.6
20260904074552 78 192 9.0 20.0 0.00 0.00 0.00 52 1012.6
20260904074241 78 180 9.0 15.0 0.00 0.00 0.00 52 1012.6
20260904073930 78 180 8.0 15.0 0.00 0.00 0.00 52 1012.7
20260904073618 78 180 8.0 15.0 0.00 0.00 0.00 51 1012.7
20260904073309 78 180 8.0 15.0 0.00 0.00 0.00 51 1012.8
20260904072539 79 180 9.0 18.0 0.00 0.00 0.00 51 1013.0
20260904072235 79 182 9.0 18.0 0.00 0.00 0.00 50 1013.0
20260904071921 79 182 11.0 18.0 0.00 0.00 0.00 51 1013.1
20260904071151 79 187 12.0 18.0 0.00 0.00 0.00 51 1013.1
20260904070847 79 188 11.0 18.0 0.00 0.00 0.00 51 1013.1
20260904070539 79 188 11.0 18.0 0.00 0.00 0.00 51 1013.1
20260904070234 79 192 11.0 18.0 0.00 0.00 0.00 51 1013.0
20260904064627 78 209 10.0 14.0 0.00 0.00 0.00 52 1013.0
20260904064316 78 210 10.0 14.0 0.00 0.00 0.00 52 1013.0
20260904063540 77 213 9.0 12.0 0.00 0.00 0.00 52 1013.0
20260904063237 77 213 8.0 11.0 0.00 0.00 0.00 53 1013.0
20260904062939 77 213 7.0 11.0 0.00 0.00 0.00 53 1013.0
20260904062634 77 213 7.0 11.0 0.00 0.00 0.00 53 1013.0
20260904062329 77 213 7.0 11.0 0.00 0.00 0.00 53 1013.0
20260904062023 77 213 7.0 11.0 0.00 0.00 0.00 52 1013.0
20260904061711 78 213 8.0 11.0 0.00 0.00 0.00 52 1013.1
20260904061403 78 213 8.0 11.0 0.00 0.00 0.00 52 1013.0
20260904061058 78 213 9.0 11.0 0.00 0.00 0.00 51 1013.0
20260904060801 78 213 9.0 11.0 0.00 0.00 0.00 51 1013.0
20260904060452 78 213 9.0 11.0 0.00 0.00 0.00 51 1013.1
20260904060147 79 213 9.0 11.0 0.00 0.00 0.00 51 1013.1
20260904055846 78 216 8.0 11.0 0.00 0.00 0.00 51 1013.1
20260904055119 78 220 7.0 9.0 0.00 0.00 0.00 52 1012.9
20260904054813 78 220 6.0 9.0 0.00 0.00 0.00 52 1012.8
20260904054504 77 220 6.0 8.0 0.00 0.00 0.00 52 1012.9
20260904054158 77 220 6.0 8.0 0.00 0.00 0.00 52 1012.9
20260904053901 77 220 5.0 7.0 0.00 0.00 0.00 52 1012.9
20260904053602 77 220 5.0 7.0 0.00 0.00 0.00 51 1013.0
20260904053258 77 220 5.0 7.0 0.00 0.00 0.00 51 1012.9
20260904052952 77 220 5.0 7.0 0.00 0.00 0.00 50 1012.9
20260904052644 78 220 5.0 7.0 0.00 0.00 0.00 49 1013.0
20260904051911 79 220 5.0 8.0 0.00 0.00 0.00 48 1013.2
20260904051609 79 220 6.0 14.0 0.00 0.00 0.00 47 1013.2
20260904050432 81 220 7.0 14.0 0.00 0.00 0.00 45 1013.2
20260904050119 81 221 6.0 14.0 0.00 0.00 0.00 45 1013.1
20260904045353 80 248 3.0 8.0 0.00 0.00 0.00 45 1013.1
20260904045048 80 248 1.0 8.0 0.00 0.00 0.00 45 1013.1
20260904044739 80 248 0.0 8.0 0.00 0.00 0.00 44 1013.0
20260904044437 80 248 0.0 0.0 0.00 0.00 0.00 44 1013.1
20260904044128 80 248 0.0 0.0 0.00 0.00 0.00 44 1013.2
20260904043815 81 248 0.0 1.0 0.00 0.00 0.00 44 1013.1
20260904043512 81 248 0.0 0.0 0.00 0.00 0.00 43 1013.2
20260904043205 81 248 0.0 1.0 0.00 0.00 0.00 43 1013.1
20260904042902 81 248 0.0 0.0 0.00 0.00 0.00 42 1013.3
20260904042554 81 248 1.0 4.0 0.00 0.00 0.00 40 1013.4
20260904041833 81 248 2.0 4.0 0.00 0.00 0.00 40 1013.4
20260904041533 81 248 1.0 4.0 0.00 0.00 0.00 40 1013.5
20260904041231 80 248 1.0 4.0 0.00 0.00 0.00 41 1013.6
20260904040918 80 248 0.0 3.0 0.00 0.00 0.00 41 1013.6
20260904040620 79 248 0.0 3.0 0.00 0.00 0.00 41 1013.7
20260904040322 79 248 0.0 3.0 0.00 0.00 0.00 41 1013.7
20260904040011 79 248 0.0 0.0 0.00 0.00 0.00 41 1013.8
20260904035245 79 248 0.0 0.0 0.00 0.00 0.00 41 1013.7
20260904034935 79 248 0.0 3.0 0.00 0.00 0.00 41 1013.7
20260904034625 79 248 0.0 4.0 0.00 0.00 0.00 40 1013.6
20260904033859 79 248 2.0 5.0 0.00 0.00 0.00 40 1013.1
20260904033132 79 248 3.0 5.0 0.00 0.00 0.00 40 1012.9
20260904032418 79 248 3.0 5.0 0.00 0.00 0.00 40 1012.8
20260904032112 79 248 2.0 5.0 0.00 0.00 0.00 40 1012.8
20260904031803 79 248 1.0 4.0 0.00 0.00 0.00 40 1012.8
20260904031458 78 248 0.0 4.0 0.00 0.00 0.00 40 1012.7
20260904031145 79 248 0.0 3.0 0.00 0.00 0.00 40 1012.8
20260904030839 79 248 0.0 3.0 0.00 0.00 0.00 40 1012.7
20260904030534 79 248 1.0 5.0 0.00 0.00 0.00 40 1012.8
20260904030224 79 248 1.0 5.0 0.00 0.00 0.00 39 1012.6
20260904025911 79 248 1.0 5.0 0.00 0.00 0.00 39 1012.6
20260904025608 79 248 1.0 5.0 0.00 0.00 0.00 39 1012.6
20260904025259 79 248 1.0 5.0 0.00 0.00 0.00 38 1012.5
20260904024954 80 248 1.0 5.0 0.00 0.00 0.00 38 1012.5
20260904024656 80 248 2.0 5.0 0.00 0.00 0.00 37 1012.5
20260904024346 80 248 2.0 5.0 0.00 0.00 0.00 37 1012.5
20260904024046 81 248 3.0 5.0 0.00 0.00 0.00 37 1012.4
20260904023307 81 248 2.0 5.0 0.00 0.00 0.00 36 1012.5
20260904022955 82 248 1.0 5.0 0.00 0.00 0.00 36 1012.4
20260904022643 82 248 2.0 5.0 0.00 0.00 0.00 36 1012.3
20260904022338 82 248 2.0 5.0 0.00 0.00 0.00 36 1012.4
20260904022031 82 248 2.0 5.0 0.00 0.00 0.00 36 1012.4
20260904021725 82 248 1.0 5.0 0.00 0.00 0.00 35 1012.3
20260904021419 83 248 1.0 6.0 0.00 0.00 0.00 35 1012.3
20260904020657 83 248 3.0 6.0 0.00 0.00 0.00 34 1012.2
20260904020352 84 248 2.0 6.0 0.00 0.00 0.00 33 1012.3
20260904020043 84 248 2.0 6.0 0.00 0.00 0.00 33 1012.2
20260904015742 84 248 2.0 6.0 0.00 0.00 0.00 33 1012.2
20260904015434 84 248 1.0 5.0 0.00 0.00 0.00 32 1012.2
20260904015125 85 248 1.0 5.0 0.00 0.00 0.00 32 1012.0
20260904014814 85 248 1.0 5.0 0.00 0.00 0.00 31 1012.0
20260904014512 86 248 2.0 6.0 0.00 0.00 0.00 30 1012.0
20260904013745 87 248 2.0 6.0 0.00 0.00 0.00 29 1011.8
20260904013431 87 248 2.0 6.0 0.00 0.00 0.00 29 1011.6
20260904013131 87 248 2.0 6.0 0.00 0.00 0.00 28 1011.6
20260904012414 88 248 2.0 5.0 0.00 0.00 0.00 27 1011.4
20260904011651 89 248 1.0 4.0 0.00 0.00 0.00 26 1011.4
20260904011352 90 248 1.0 4.0 0.00 0.00 0.00 26 1011.4
20260904011052 91 248 0.0 4.0 0.00 0.00 0.00 25 1011.3
20260904010751 92 248 0.0 4.0 0.00 0.00 0.00 26 1011.3
20260904010441 92 248 0.0 0.0 0.00 0.00 0.00 26 1011.2
20260904010139 93 248 0.0 0.0 0.00 0.00 0.00 26 1011.3
20260904005833 93 248 0.0 2.0 0.00 0.00 0.00 26 1011.3
20260904005523 93 248 0.0 2.0 0.00 0.00 0.00 26 1011.2
20260904005222 94 248 0.0 3.0 0.00 0.00 0.00 26 1011.3
20260904004919 94 248 1.0 3.0 0.00 0.00 0.00 25 1011.3
20260904004617 95 248 1.0 3.0 0.00 0.00 0.00 25 1011.2
20260904004305 95 248 1.0 4.0 0.00 0.00 0.00 25 1011.2
20260904003957 95 248 1.0 4.0 0.00 0.00 0.00 24 1011.2
20260904003644 96 248 1.0 4.0 0.00 0.00 0.00 25 1011.2
20260904003345 96 248 2.0 10.0 0.00 0.00 0.00 24 1011.3
20260904003039 96 248 3.0 10.0 0.00 0.00 0.00 24 1011.3
20260904002728 97 248 3.0 10.0 0.00 0.00 0.00 23 1011.3
20260904002014 98 248 2.0 10.0 0.00 0.00 0.00 23 1011.2
20260904001714 98 248 2.0 10.0 0.00 0.00 0.00 23 1011.3
20260904001408 98 248 1.0 10.0 0.00 0.00 0.00 22 1011.3
20260904001102 99 248 1.0 6.0 0.00 0.00 0.00 22 1011.2
20260904000748 99 248 1.0 6.0 0.00 0.00 0.00 22 1011.2
20260904000451 99 248 2.0 6.0 0.00 0.00 0.00 23 1011.2
20260904000141 99 248 3.0 10.0 0.00 0.00 0.00 22 1011.4
20260903235833 98 248 5.0 10.0 0.00 0.00 0.00 22 1011.2
20260903235115 99 248 7.0 11.0 0.00 0.00 0.00 21 1011.2
20260903234818 99 248 8.0 11.0 0.00 0.00 0.00 20 1011.2
20260903234511 99 249 7.0 11.0 0.00 0.00 0.00 20 1011.2
20260903234200 99 252 5.0 11.0 0.00 0.00 0.00 20 1011.2
20260903233847 100 252 3.0 11.0 0.00 0.00 0.00 20 1011.2
20260903233539 100 254 3.0 11.0 0.00 0.00 0.00 20 1011.2
20260903232815 100 265 3.0 9.0 0.00 0.00 0.00 20 1011.3
20260903232049 99 265 6.0 9.0 0.00 0.00 0.00 20 1011.2
20260903231323 100 265 5.0 9.0 0.00 0.00 0.00 20 1011.3
20260903231025 100 266 5.0 9.0 0.00 0.00 0.00 20 1011.2
20260903230725 100 266 5.0 9.0 0.00 0.00 0.00 20 1011.3
20260903230419 100 266 4.0 10.0 0.00 0.00 0.00 21 1011.3
20260903230115 100 266 3.0 10.0 0.00 0.00 0.00 20 1011.3
20260903225814 100 265 3.0 10.0 0.00 0.00 0.00 22 1011.3
20260903225101 99 265 6.0 11.0 0.00 0.00 0.00 21 1011.2
20260903224333 100 269 7.0 14.0 0.00 0.00 0.00 21 1011.3
20260903224023 99 268 7.0 14.0 0.00 0.00 0.00 21 1011.2
20260903223716 99 268 8.0 14.0 0.00 0.00 0.00 21 1011.2
20260903223408 99 268 8.0 14.0 0.00 0.00 0.00 20 1011.2
20260903223058 99 261 7.0 14.0 0.00 0.00 0.00 21 1011.2
20260903222318 100 260 7.0 13.0 0.00 0.00 0.00 21 1011.2
20260903222014 99 260 7.0 13.0 0.00 0.00 0.00 20 1011.1
20260903221711 100 260 7.0 13.0 0.00 0.00 0.00 20 1011.1
20260903221402 100 251 6.0 13.0 0.00 0.00 0.00 21 1011.1
20260903221059 100 277 6.0 13.0 0.00 0.00 0.00 20 1011.2
20260903215907 100 273 7.0 12.0 0.00 0.00 0.00 21 1011.4
20260903215148 99 281 7.0 15.0 0.00 0.00 0.00 20 1011.4
20260903214841 99 275 8.0 15.0 0.00 0.00 0.00 20 1011.4
20260903214535 99 273 7.0 15.0 0.00 0.00 0.00 21 1011.4
20260903214223 99 281 7.0 17.0 0.00 0.00 0.00 21 1011.4
20260903213916 99 246 6.0 17.0 0.00 0.00 0.00 21 1011.5
20260903213153 100 227 10.0 17.0 0.00 0.00 0.00 22 1011.7
20260903212011 99 277 6.0 15.0 0.00 0.00 0.00 22 1011.8
20260903211714 99 275 7.0 15.0 0.00 0.00 0.00 21 1011.9
20260903210949 99 277 8.0 15.0 0.00 0.00 0.00 22 1012.0
20260903210635 99 259 8.0 15.0 0.00 0.00 0.00 21 1012.0
20260903210335 99 200 8.0 15.0 0.00 0.00 0.00 22 1012.2
20260903210029 99 199 10.0 15.0 0.00 0.00 0.00 21 1012.2
20260903205729 99 197 8.0 15.0 0.00 0.00 0.00 21 1012.2
20260903205417 99 211 8.0 15.0 0.00 0.00 0.00 21 1012.2
20260903205117 98 241 7.0 14.0 0.00 0.00 0.00 21 1012.3
20260903204815 98 271 7.0 14.0 0.00 0.00 0.00 21 1012.2
20260903204513 98 267 8.0 14.0 0.00 0.00 0.00 21 1012.4
20260903204210 99 269 7.0 14.0 0.00 0.00 0.00 22 1012.5
20260903203904 99 291 7.0 14.0 0.00 0.00 0.00 21 1012.4
20260903203140 99 235 8.0 14.0 0.00 0.00 0.00 21 1012.4
20260903202838 99 259 7.0 13.0 0.00 0.00 0.00 20 1012.5
20260903202534 99 265 6.0 13.0 0.00 0.00 0.00 22 1012.5
20260903202231 99 276 4.0 13.0 0.00 0.00 0.00 21 1012.5
20260903201505 98 291 4.0 9.0 0.00 0.00 0.00 21 1012.5
20260903200748 98 290 7.0 14.0 0.00 0.00 0.00 21 1012.7
20260903200021 98 301 8.0 17.0 0.00 0.00 0.00 22 1012.7
20260903195724 99 298 8.0 17.0 0.00 0.00 0.00 20 1012.6
20260903195426 99 281 8.0 17.0 0.00 0.00 0.00 21 1012.7
20260903195119 98 286 7.0 17.0 0.00 0.00 0.00 22 1012.8
20260903194821 98 291 7.0 17.0 0.00 0.00 0.00 22 1012.8
20260903194516 98 293 7.0 17.0 0.00 0.00 0.00 21 1012.9
20260903194207 98 288 7.0 13.0 0.00 0.00 0.00 21 1012.9
20260903193910 97 300 6.0 13.0 0.00 0.00 0.00 21 1012.9
20260903193559 98 300 5.0 13.0 0.00 0.00 0.00 21 1013.0
20260903193250 98 308 4.0 13.0 0.00 0.00 0.00 21 1012.8
20260903192950 98 284 5.0 13.0 0.00 0.00 0.00 21 1012.9
20260903192652 98 279 5.0 13.0 0.00 0.00 0.00 21 1013.0
20260903192344 98 279 5.0 13.0 0.00 0.00 0.00 22 1013.1
20260903192042 98 300 5.0 13.0 0.00 0.00 0.00 21 1013.1
20260903191737 98 296 5.0 13.0 0.00 0.00 0.00 22 1013.1
20260903191429 97 296 6.0 13.0 0.00 0.00 0.00 22 1013.2
20260903191127 98 304 6.0 13.0 0.00 0.00 0.00 22 1013.3
20260903185951 97 318 6.0 13.0 0.00 0.00 0.00 22 1013.4
20260903185653 97 298 6.0 13.0 0.00 0.00 0.00 22 1013.4
20260903185354 97 298 7.0 13.0 0.00 0.00 0.00 22 1013.4
20260903185052 97 298 6.0 13.0 0.00 0.00 0.00 22 1013.2
20260903184751 97 298 6.0 13.0 0.00 0.00 0.00 22 1013.4
20260903184444 97 316 6.0 11.0 0.00 0.00 0.00 23 1013.4
20260903184132 97 318 7.0 11.0 0.00 0.00 0.00 23 1013.4
20260903183828 97 321 7.0 12.0 0.00 0.00 0.00 23 1013.4
20260903183525 97 321 6.0 12.0 0.00 0.00 0.00 24 1013.4
20260903183213 97 307 6.0 12.0 0.00 0.00 0.00 24 1013.5
20260903182445 96 311 6.0 13.0 0.00 0.00 0.00 24 1013.7
20260903182132 96 311 5.0 13.0 0.00 0.00 0.00 25 1013.7
20260903181827 96 311 6.0 14.0 0.00 0.00 0.00 25 1013.8
20260903181529 96 313 6.0 14.0 0.00 0.00 0.00 25 1013.8
20260903180804 96 329 7.0 17.0 0.00 0.00 0.00 24 1013.9
20260903180503 96 334 7.0 17.0 0.00 0.00 0.00 23 1014.0
20260903180156 96 341 8.0 17.0 0.00 0.00 0.00 23 1014.0
20260903175856 96 334 9.0 17.0 0.00 0.00 0.00 24 1014.0
20260903175545 96 351 9.0 17.0 0.00 0.00 0.00 23 1014.0
20260903175235 96 348 8.0 17.0 0.00 0.00 0.00 24 1014.0
20260903174939 95 344 8.0 17.0 0.00 0.00 0.00 23 1014.0
20260903174639 95 335 7.0 14.0 0.00 0.00 0.00 24 1014.2
20260903174332 95 337 7.0 14.0 0.00 0.00 0.00 24 1014.1
20260903173605 95 320 8.0 14.0 0.00 0.00 0.00 26 1014.2
20260903173305 95 322 8.0 14.0 0.00 0.00 0.00 25 1014.2
20260903172958 94 298 8.0 14.0 0.00 0.00 0.00 25 1014.3
20260903172657 94 313 8.0 12.0 0.00 0.00 0.00 26 1014.2
20260903172346 94 304 8.0 12.0 0.00 0.00 0.00 27 1014.2
20260903172050 94 298 8.0 15.0 0.00 0.00 0.00 26 1014.2
20260903171750 94 308 8.0 15.0 0.00 0.00 0.00 25 1014.2
20260903171439 94 307 8.0 15.0 0.00 0.00 0.00 27 1014.2
20260903171142 93 306 8.0 15.0 0.00 0.00 0.00 26 1014.2
20260903170835 93 295 8.0 15.0 0.00 0.00 0.00 27 1014.2
20260903170535 93 309 8.0 15.0 0.00 0.00 0.00 28 1014.2
20260903170236 93 313 8.0 15.0 0.00 0.00 0.00 28 1014.2
20260903165457 93 288 7.0 14.0 0.00 0.00 0.00 28 1014.1
20260903165154 92 285 6.0 14.0 0.00 0.00 0.00 29 1014.2
20260903164843 92 283 7.0 14.0 0.00 0.00 0.00 31 1014.1
20260903164538 92 282 7.0 14.0 0.00 0.00 0.00 32 1014.2
20260903164226 91 282 7.0 14.0 0.00 0.00 0.00 32 1014.2
20260903163921 91 271 7.0 12.0 0.00 0.00 0.00 32 1014.3
20260903163620 91 269 7.0 12.0 0.00 0.00 0.00 33 1014.3
20260903163314 90 267 6.0 11.0 0.00 0.00 0.00 36 1014.3
20260903163017 90 267 6.0 11.0 0.00 0.00 0.00 36 1014.1
20260903162706 89 267 6.0 11.0 0.00 0.00 0.00 38 1014.1
20260903162408 89 267 6.0 11.0 0.00 0.00 0.00 37 1014.1
20260903162109 88 267 6.0 10.0 0.00 0.00 0.00 39 1014.1
20260903161803 88 267 6.0 10.0 0.00 0.00 0.00 39 1014.2
20260903160628 86 266 6.0 11.0 0.00 0.00 0.00 41 1014.2
20260903160319 86 266 6.0 11.0 0.00 0.00 0.00 41 1014.2
20260903155548 86 266 6.0 11.0 0.00 0.00 0.00 42 1014.3
20260903155243 85 265 6.0 11.0 0.00 0.00 0.00 42 1014.3
20260903154946 85 265 6.0 11.0 0.00 0.00 0.00 42 1014.3
20260903154647 84 265 6.0 11.0 0.00 0.00 0.00 44 1014.2
20260903154336 84 265 6.0 11.0 0.00 0.00 0.00 43 1014.2
20260903153608 83 264 6.0 10.0 0.00 0.00 0.00 46 1014.2
20260903152836 82 263 6.0 11.0 0.00 0.00 0.00 46 1014.2
20260903152527 82 263 7.0 11.0 0.00 0.00 0.00 47 1014.1
20260903152224 81 263 7.0 11.0 0.00 0.00 0.00 46 1014.0
20260903151923 81 263 7.0 11.0 0.00 0.00 0.00 47 1014.1
20260903151144 80 257 6.0 10.0 0.00 0.00 0.00 48 1014.1
20260903150845 80 256 6.0 11.0 0.00 0.00 0.00 48 1014.2
20260903150533 79 256 6.0 11.0 0.00 0.00 0.00 49 1014.1
20260903145820 78 254 7.0 11.0 0.00 0.00 0.00 49 1014.1
20260903145517 78 254 7.0 11.0 0.00 0.00 0.00 50 1014.1
20260903145204 78 254 7.0 11.0 0.00 0.00 0.00 50 1014.0
20260903144904 78 254 6.0 11.0 0.00 0.00 0.00 51 1014.0
20260903144551 77 251 6.0 12.0 0.00 0.00 0.00 51 1014.0
20260903144246 77 251 6.0 12.0 0.00 0.00 0.00 52 1014.0
20260903143945 77 251 7.0 12.0 0.00 0.00 0.00 52 1014.1
20260903143645 77 250 7.0 12.0 0.00 0.00 0.00 51 1014.0
20260903143336 76 250 7.0 12.0 0.00 0.00 0.00 51 1014.1
20260903143029 76 250 7.0 12.0 0.00 0.00 0.00 52 1014.0
20260903142720 76 244 7.0 11.0 0.00 0.00 0.00 53 1014.1
20260903142408 76 243 7.0 11.0 0.00 0.00 0.00 52 1014.1
20260903142104 76 242 7.0 11.0 0.00 0.00 0.00 53 1014.0
20260903141759 75 240 7.0 11.0 0.00 0.00 0.00 54 1014.0
20260903141449 75 240 7.0 11.0 0.00 0.00 0.00 55 1014.1
20260903141148 75 240 7.0 11.0 0.00 0.00 0.00 54 1014.1
20260903140844 74 239 7.0 11.0 0.00 0.00 0.00 56 1014.1
20260903140120 73 237 7.0 10.0 0.00 0.00 0.00 60 1014.2
20260903135820 72 237 7.0 13.0 0.00 0.00 0.00 62 1014.2
20260903135508 72 237 7.0 13.0 0.00 0.00 0.00 63 1014.2
20260903135211 71 237 7.0 13.0 0.00 0.00 0.00 64 1014.1
20260903134911 71 236 8.0 13.0 0.00 0.00 0.00 65 1014.1
20260903134614 70 236 8.0 13.0 0.00 0.00 0.00 66 1014.0
20260903134315 70 236 8.0 13.0 0.00 0.00 0.00 67 1014.1
20260903134007 69 234 8.0 13.0 0.00 0.00 0.00 68 1014.1
20260903133238 68 223 8.0 12.0 0.00 0.00 0.00 71 1014.0
20260903132930 68 222 7.0 12.0 0.00 0.00 0.00 72 1014.1
20260903132202 67 215 7.0 10.0 0.00 0.00 0.00 74 1014.1
20260903131855 67 214 7.0 10.0 0.00 0.00 0.00 74 1014.0
20260903131550 67 213 7.0 10.0 0.00 0.00 0.00 75 1014.0
20260903130828 66 213 7.0 10.0 0.00 0.00 0.00 76 1013.7
20260903130522 66 213 7.0 10.0 0.00 0.00 0.00 77 1013.6
20260903130219 66 213 7.0 9.0 0.00 0.00 0.00 77 1013.6
20260903125911 66 213 7.0 9.0 0.00 0.00 0.00 77 1013.7
20260903125615 66 213 7.0 9.0 0.00 0.00 0.00 77 1013.7
20260903125313 66 213 6.0 12.0 0.00 0.00 0.00 77 1013.7
20260903125015 66 213 7.0 12.0 0.00 0.00 0.00 76 1013.5
20260903124708 66 213 7.0 12.0 0.00 0.00 0.00 76 1013.5
20260903124408 66 213 8.0 12.0 0.00 0.00 0.00 76 1013.4